Wind_Speed
38 38 37 36 32 29 26 24 24 23 22 22 20 18 17 15 13 9 11 16 20 22 25 28 27 25 23 19 17 17 17 18 18 17 16 16 15 14 13 14 13 13 13 12 11 11 10 10 9 9 10 9 9 9 9 9 10 10 10 11 11 10 10 10 10 11 11 12 13 13 13 13 15 17 18 19 21 21 21 20 20 19 18 18 17 17
38 38 37 35 32 29 28 26 26 24 22 21 20 20 20 16 14 11 11 17 21 22 24 27 27 26 24 20 18 17 18 19 18 17 17 16 16 15 15 15 14 14 14 13 13 12 11 11 10 9 10 10 9 9 8 8 9 10 10 11 11 11 11 11 11 11 12 13 13 13 13 13 15 18 19 19 20 20 19 19 18 17 17 16 15 15
38 37 35 33 32 31 29 27 26 24 23 22 19 20 20 15 13 12 11 14 19 22 23 24 26 26 23 21 20 19 18 19 19 18 18 17 17 16 17 16 15 15 15 14 14 13 12 11 10 10 11 10 9 8 8 8 9 9 9 10 11 11 11 12 12 12 12 13 13 13 13 13 14 17 19 19 19 18 18 17 17 16 16 15 14 13
36 34 33 32 32 33 30 26 25 24 24 23 21 21 21 17 12 10 10 10 13 18 23 24 26 26 26 25 24 22 20 21 21 21 20 19 18 17 18 17 16 16 16 14 14 14 13 12 11 11 11 11 10 9 8 8 8 9 8 9 9 10 10 12 12 13 13 13 14 14 14 13 14 15 17 17 17 17 16 16 15 15 14 14 13 12
35 31 30 32 33 34 31 26 23 22 22 22 22 22 21 20 15 11 11 11 9 13 19 21 23 27 29 28 27 26 24 23 22 22 21 20 20 19 19 18 18 18 17 16 15 15 14 13 11 11 11 12 11 10 9 8 8 8 8 8 8 8 9 10 11 12 13 14 15 15 14 14 13 15 15 15 15 15 15 14 14 13 12 12 11 10
33 30 30 31 34 34 32 29 22 18 18 19 20 21 19 20 19 13 13 13 9 10 13 17 21 26 30 29 29 28 26 25 23 22 21 20 20 20 19 18 18 18 17 17 16 16 15 14 13 12 11 12 12 11 10 9 8 8 8 7 7 7 8 9 10 11 12 13 14 15 15 14 14 14 14 14 14 13 13 12 12 11 10 10 9 8
32 31 29 28 31 33 32 32 25 17 16 16 18 20 19 20 20 15 13 13 11 10 11 14 18 25 30 29 30 30 27 27 25 22 21 21 20 19 19 18 17 17 17 16 16 16 16 15 14 13 12 12 13 12 11 10 9 8 8 8 7 7 7 8 10 10 11 12 13 14 14 14 14 13 13 13 13 12 12 11 10 9 9 8 7 6
30 27 29 29 30 32 30 30 27 19 13 12 17 21 19 19 20 17 13 11 11 11 11 10 12 19 30 31 29 29 28 28 26 23 21 21 20 20 19 18 18 18 17 16 16 16 16 15 15 14 13 13 13 13 12 11 10 9 8 8 7 7 7 7 8 9 10 11 13 13 13 13 13 13 13 13 12 11 10 10 9 8 7 6 5 4
27 21 27 31 27 27 27 26 24 17 10 10 19 23 19 19 21 18 14 12 12 12 11 9 7 12 25 30 28 29 29 29 27 23 21 22 21 20 20 19 18 18 18 17 17 17 17 16 16 15 14 14 14 14 14 13 12 10 9 8 7 8 8 7 6 7 8 10 12 12 12 13 13 13 12 12 12 11 10 9 9 8 7 6 5 3
25 19 25 29 25 25 27 26 21 13 11 16 22 22 17 18 20 18 16 13 12 12 10 9 8 9 15 22 27 33 32 29 26 23 21 22 22 21 21 20 18 18 18 18 18 18 18 17 17 16 15 15 15 15 14 13 12 12 10 9 8 8 8 8 7 7 8 9 10 11 12 12 12 12 12 12 11 11 10 9 8 8 7 6 5 4
17 17 23 28 26 23 23 26 23 14 17 23 23 23 19 16 15 15 16 13 12 13 11 9 9 10 11 13 21 30 32 29 26 24 21 21 22 21 21 20 19 19 18 18 18 18 18 18 17 17 16 16 15 15 14 13 13 12 12 10 9 9 9 8 7 7 8 8 9 9 11 11 11 11 12 11 11 11 10 9 8 8 7 6 5 4
19 17 21 27 30 24 24 25 20 14 18 20 22 28 25 17 13 12 13 13 13 13 12 9 8 10 12 11 15 24 31 30 27 23 21 21 21 22 21 21 20 20 19 19 19 19 18 18 17 17 17 16 16 15 15 14 13 13 12 12 11 10 10 9 8 8 7 8 8 8 9 10 10 10 10 11 11 11 10 9 8 7 7 6 5 3
24 17 15 24 32 31 31 26 16 17 22 18 20 29 26 18 14 12 12 13 15 15 12 11 9 8 10 11 13 20 30 31 28 26 23 22 21 21 21 21 22 21 20 19 19 20 19 18 17 16 17 17 16 15 15 15 14 13 13 12 12 11 10 10 10 9 9 8 8 8 7 8 9 9 9 10 10 11 11 9 8 7 6 5 4 3
19 15 17 22 29 34 36 29 17 17 24 25 25 27 25 20 15 13 13 13 15 15 13 12 11 8 7 9 12 19 32 32 30 30 27 24 23 22 22 22 22 22 21 21 21 21 20 19 18 17 17 17 17 16 16 15 15 14 13 13 12 12 11 11 11 11 10 9 9 9 8 8 8 8 9 9 9 9 9 9 8 7 6 5 4 3
16 16 19 18 22 32 37 32 21 11 15 25 29 28 25 21 16 11 9 11 14 14 12 11 12 10 7 7 9 15 31 34 31 31 29 27 25 24 24 24 24 24 23 22 21 22 21 21 20 19 19 18 18 18 17 16 16 14 14 13 13 12 12 12 12 11 11 11 10 10 10 10 9 9 9 9 9 9 9 8 8 7 7 6 5 4
16 15 15 15 16 28 36 33 27 17 10 15 24 28 28 24 21 15 10 11 12 13 12 10 11 11 9 7 4 10 22 25 26 28 29 29 27 25 25 25 25 24 24 23 22 22 22 22 22 20 20 20 19 18 19 18 17 16 15 14 14 13 12 12 12 11 11 11 11 11 11 11 10 10 10 10 10 10 9 9 8 8 8 7 6 5
15 12 13 18 20 25 32 32 30 25 17 13 16 23 26 24 25 23 17 14 12 12 13 11 10 10 10 9 6 7 11 14 17 21 24 28 29 28 27 26 26 25 24 24 23 23 23 22 23 22 21 21 21 20 20 19 19 18 16 16 15 14 13 12 12 11 11 11 12 12 12 11 11 11 11 11 11 11 10 10 9 8 8 7 6 5
17 12 13 20 21 24 28 30 30 29 25 20 16 17 21 22 23 24 19 14 12 12 12 10 10 10 9 10 10 10 9 9 11 15 21 28 32 32 30 27 27 26 24 25 24 24 24 24 23 23 23 23 22 22 21 21 20 19 18 17 17 16 15 14 13 12 12 11 12 12 12 12 12 11 11 11 11 11 11 10 10 9 8 7 6 5
23 15 12 17 16 19 25 32 32 32 31 27 23 21 21 21 20 23 21 15 13 14 12 11 10 9 9 9 10 12 10 7 8 10 17 27 34 35 33 30 27 27 25 25 25 24 24 24 24 24 24 24 24 23 22 23 22 20 20 19 19 18 17 15 14 13 13 13 13 13 13 13 13 12 12 12 11 11 11 10 10 9 9 8 7 7
21 18 12 12 11 12 23 32 34 32 33 32 29 24 21 21 19 22 24 20 15 12 12 14 11 8 10 11 11 10 10 9 9 8 11 22 35 37 33 30 28 27 26 24 25 24 24 25 25 24 25 25 25 24 24 24 23 21 21 21 20 20 19 17 16 14 14 14 14 13 13 13 13 13 13 12 12 11 11 10 10 10 9 9 9 8
18 13 9 8 9 12 22 31 32 30 31 32 31 26 22 21 19 21 23 21 17 11 10 14 13 9 10 12 13 11 9 8 9 8 6 14 29 35 31 28 28 27 27 26 25 25 25 25 26 26 26 26 26 25 25 24 23 23 22 22 21 21 20 19 18 17 16 15 15 14 14 14 14 14 14 13 13 13 12 11 10 10 10 10 10 9
19 11 10 7 6 10 18 24 28 29 26 25 28 28 24 20 18 21 22 19 17 13 10 14 13 10 12 12 12 12 10 8 8 10 7 7 16 23 25 26 28 28 28 28 27 26 26 26 27 27 26 26 26 26 25 24 23 23 23 23 23 22 21 21 20 18 17 16 16 15 15 16 15 15 15 14 14 14 14 13 12 12 11 11 11 10
22 15 18 16 8 7 10 14 23 29 22 16 20 23 23 22 21 21 20 18 18 14 9 13 13 11 12 12 10 10 11 9 8 10 11 9 9 12 15 19 24 28 30 30 29 28 28 28 28 28 26 26 26 26 25 24 23 23 23 23 23 23 22 22 21 20 19 18 17 16 16 16 16 16 16 15 16 16 15 14 14 14 13 13 12 12
27 20 19 20 15 10 7 11 21 30 28 23 19 18 21 22 21 20 17 18 20 15 10 12 15 13 12 11 10 10 10 10 10 11 13 13 10 8 9 11 16 23 29 31 30 29 29 29 28 28 27 26 25 25 25 24 23 23 24 24 24 23 24 23 22 22 21 20 19 18 17 17 17 17 17 16 16 16 16 16 16 15 15 15 14 13
31 27 22 18 14 11 9 11 15 24 31 27 17 13 19 21 19 17 16 18 19 18 15 17 17 15 13 12 12 11 10 11 12 13 14 15 15 12 10 9 11 17 24 31 33 32 31 30 29 28 27 25 24 25 25 24 24 23 24 24 24 24 25 24 23 23 22 22 21 20 19 19 19 19 18 18 17 17 17 17 17 17 17 16 16 16
29 32 30 24 16 13 15 15 12 16 24 26 23 17 16 19 18 15 13 14 17 17 19 22 20 15 13 13 13 13 12 12 13 13 13 16 19 17 14 11 10 12 19 27 33 35 32 30 29 28 26 24 24 25 25 25 25 24 24 24 24 24 25 24 24 24 23 23 22 21 21 20 20 20 20 19 19 18 18 18 18 18 18 18 18 18
26 30 33 32 27 22 22 23 20 18 17 21 28 26 17 12 17 20 17 11 16 20 21 24 24 20 17 14 14 15 13 12 14 15 15 16 19 20 19 15 13 12 15 20 27 33 34 32 30 28 24 23 26 27 25 25 26 25 24 24 24 24 24 24 24 24 24 24 23 23 22 22 22 21 21 21 20 20 20 19 20 19 19 19 19 18
25 26 28 32 32 26 25 27 22 17 14 11 19 24 21 16 15 17 17 13 16 20 21 23 25 23 21 17 15 16 15 12 13 15 18 19 21 23 22 20 18 15 14 15 20 28 35 34 31 28 26 26 28 28 26 25 26 26 25 24 24 25 24 24 24 24 24 24 24 24 24 23 23 23 22 22 21 21 21 21 21 21 21 21 19 19
25 25 25 30 29 23 24 26 18 13 16 13 8 16 19 19 16 14 15 17 19 17 17 21 24 23 22 19 16 16 16 15 14 14 18 20 21 22 22 20 19 19 18 16 15 22 31 34 31 29 29 29 29 28 28 27 27 26 25 24 26 27 26 25 25 24 24 24 24 24 25 25 24 24 24 24 23 22 22 22 22 22 22 21 21 21
24 24 26 31 29 21 18 19 16 13 17 15 9 11 11 13 15 15 17 20 20 15 16 20 24 24 22 19 19 19 18 18 19 18 20 19 16 17 19 18 18 20 21 18 14 17 24 28 28 29 30 31 30 30 30 29 28 28 27 27 28 29 28 27 26 25 24 24 24 25 26 25 25 26 26 26 25 24 24 24 24 24 23 22 22 22
23 24 26 29 30 27 20 16 16 13 13 13 16 20 21 19 18 19 18 18 18 15 15 22 25 26 24 20 20 21 20 21 22 22 23 21 14 10 13 15 17 20 22 20 16 15 18 20 21 22 23 26 27 30 33 32 29 30 32 30 30 30 29 28 28 26 25 25 25 25 26 26 26 27 27 27 27 26 26 26 25 25 24 24 23 23
21 25 26 25 26 25 18 13 14 11 10 15 22 26 31 32 31 30 27 24 24 23 22 25 27 25 24 22 21 22 22 22 24 23 23 24 20 14 12 12 12 16 21 21 20 19 18 18 19 20 20 19 20 23 30 34 32 31 32 33 31 31 31 29 29 27 26 26 26 26 26 26 27 27 28 28 28 28 28 27 27 26 26 25 25 24
19 25 28 25 23 21 15 10 14 13 13 21 26 27 32 35 35 34 32 31 31 29 29 30 29 25 23 21 21 22 23 23 25 27 27 27 26 24 20 16 13 12 15 19 22 23 22 21 20 21 22 21 20 19 22 28 33 33 33 34 33 33 33 31 30 28 28 28 27 27 27 28 27 28 29 29 29 29 29 29 28 27 27 26 26 25
21 25 27 27 27 25 18 14 16 19 20 27 30 26 30 35 36 34 33 33 33 32 31 31 31 29 26 23 21 22 21 22 24 26 27 27 27 28 27 25 22 19 16 16 18 20 21 21 20 19 20 21 22 21 19 20 27 33 33 33 33 35 35 33 31 30 30 30 29 28 28 28 28 29 31 31 30 30 30 30 29 28 28 27 26 26
21 24 26 27 28 27 22 18 21 24 26 31 32 27 27 33 34 33 33 34 33 33 33 32 31 30 29 26 25 24 24 24 23 23 24 26 27 28 29 28 27 27 26 22 19 18 18 18 19 18 18 18 20 21 20 18 20 27 31 31 33 35 37 35 32 31 31 32 32 31 30 30 30 32 33 33 32 31 31 30 29 28 28 27 27 25
17 22 26 28 27 27 24 21 22 25 27 29 32 30 27 29 31 30 31 33 33 33 34 34 32 31 30 30 29 28 28 28 27 26 26 27 28 29 29 28 27 28 31 29 26 24 20 18 18 18 17 17 18 19 20 18 17 20 24 26 29 34 37 38 35 32 33 35 35 34 33 33 33 34 33 32 33 33 32 32 32 30 28 27 27 26
16 20 26 28 28 26 24 22 22 24 25 26 28 29 28 29 29 27 28 31 32 32 34 34 33 33 33 32 29 28 28 29 29 30 30 29 30 30 31 30 29 29 31 30 28 27 24 22 21 20 18 17 17 18 19 21 20 21 21 23 24 27 32 38 40 37 36 37 37 36 36 37 36 35 33 32 34 35 34 34 33 31 29 28 28 30
15 19 23 27 28 27 24 23 23 23 25 26 24 24 27 30 30 26 26 28 30 31 32 31 31 32 33 33 31 29 28 29 31 32 31 30 31 32 32 32 33 32 32 32 31 30 28 26 24 23 22 20 19 18 19 21 23 24 24 23 23 23 24 29 37 40 37 37 38 39 40 40 40 38 35 35 36 36 36 35 33 32 31 31 31 33
16 18 21 23 26 29 27 23 23 23 25 28 25 22 24 28 30 28 26 27 29 31 32 31 29 28 29 29 28 26 25 26 29 31 32 32 32 32 32 32 34 35 34 34 34 33 32 31 29 28 26 25 23 23 22 23 24 25 25 24 24 23 22 21 28 36 37 36 37 38 41 44 44 42 39 38 37 37 36 34 33 33 34 33 33 34
18 19 20 20 24 29 28 25 25 25 25 26 26 24 23 25 28 29 29 29 28 30 34 34 31 29 29 28 26 24 23 25 26 29 32 33 31 30 31 32 33 34 35 35 35 35 35 35 33 31 30 29 29 28 27 27 27 27 26 25 24 24 24 21 21 27 31 33 34 36 38 42 45 44 41 39 38 38 37 36 36 36 36 36 36 34
21 21 21 20 23 25 23 23 26 28 27 25 24 24 24 24 26 29 32 33 31 31 34 35 34 33 32 33 31 28 25 24 23 23 26 28 29 29 30 31 32 33 34 35 36 36 36 36 36 35 34 33 33 32 32 31 30 29 28 27 27 26 26 24 22 22 24 26 27 29 31 35 41 43 41 39 39 39 39 38 38 38 37 38 36 31
20 21 22 22 21 20 19 21 26 29 27 24 22 22 23 26 28 31 33 35 35 35 35 35 36 35 34 36 36 33 30 29 27 24 22 23 27 30 32 33 34 35 35 36 37 37 36 36 37 37 37 36 35 35 35 34 34 33 31 30 31 30 28 27 26 26 26 24 24 23 22 26 32 38 40 40 39 40 42 43 42 40 41 41 37 30
16 18 22 23 22 22 23 26 29 29 26 24 23 21 21 25 29 31 33 34 36 37 37 36 36 35 34 35 36 35 35 36 35 31 27 23 24 28 31 33 34 34 35 37 37 37 37 37 37 36 37 37 36 36 36 35 35 34 33 32 33 33 31 29 28 27 25 25 26 26 23 21 22 26 33 38 40 40 40 38 36 36 38 40 38 35
15 18 20 21 21 22 23 25 28 28 25 24 24 23 22 24 27 28 31 33 34 35 37 37 36 34 34 34 35 36 38 39 38 34 31 28 26 27 29 30 31 32 34 35 35 35 36 36 36 35 34 35 35 34 34 35 34 32 31 32 32 31 32 32 31 31 30 30 32 32 29 26 25 24 26 29 33 37 39 37 34 34 35 37 39 42
15 17 19 18 18 19 19 21 25 25 23 23 23 23 23 24 26 27 29 31 32 34 36 36 35 34 34 34 35 36 37 38 37 34 32 31 30 28 28 29 31 32 32 33 33 33 33 34 35 35 34 32 33 32 32 34 35 33 32 31 29 28 29 31 32 34 36 37 38 37 35 34 32 32 31 28 26 29 32 35 34 31 30 32 36 41
14 17 18 18 18 19 19 20 22 23 22 21 21 21 22 24 27 29 30 31 32 33 34 36 37 36 35 35 35 35 35 36 35 33 33 33 33 32 29 28 30 32 32 32 33 33 33 33 34 35 35 34 34 33 33 34 34 33 33 34 32 31 32 32 33 34 35 36 38 37 36 34 32 32 33 31 29 29 29 28 29 29 29 29 31 34
13 15 18 18 18 20 20 21 22 23 22 20 19 19 20 22 25 28 31 33 33 33 34 36 37 38 37 37 37 37 37 38 37 36 35 35 36 35 32 30 30 31 31 32 32 33 34 35 34 34 35 35 35 36 36 36 35 34 34 36 36 36 35 35 36 37 36 35 35 35 35 34 34 34 34 35 36 36 35 33 33 33 32 31 31 33
12 14 16 16 16 17 19 21 22 22 22 21 21 20 20 21 23 25 28 30 32 34 35 36 37 38 38 37 37 37 36 36 36 37 38 37 37 36 34 33 33 32 32 32 32 33 34 35 36 36 36 36 37 38 39 39 40 39 39 39 40 40 39 37 37 38 37 36 35 35 34 33 33 34 34 35 35 36 36 35 34 34 34 34 35 36
14 16 16 16 16 16 17 18 19 20 21 21 22 22 22 22 23 23 25 26 28 31 32 34 36 38 39 38 37 36 36 35 34 36 37 38 37 37 36 34 33 33 33 34 34 35 35 36 36 37 37 38 39 39 40 40 40 40 40 40 40 41 41 40 39 39 39 38 37 36 35 33 32 33 33 32 33 34 35 35 34 35 37 38 38 39
15 16 16 16 16 16 16 16 16 17 19 21 22 23 23 23 23 23 24 25 26 27 29 30 32 34 37 39 38 37 37 37 36 36 36 36 36 36 36 35 34 34 34 34 35 36 37 38 39 39 38 38 38 39 40 41 41 40 40 40 40 40 40 40 40 39 39 38 38 37 36 33 33 33 33 33 33 33 33 34 35 36 37 38 40 40
14 15 16 16 16 15 15 15 15 16 16 18 20 22 22 23 24 24 25 25 26 27 28 29 30 31 33 36 37 37 38 38 39 40 40 40 40 39 38 38 38 38 38 37 37 37 38 40 41 42 41 40 39 38 38 39 40 40 41 41 41 41 41 41 41 41 41 40 39 39 38 37 36 36 36 36 35 35 34 35 35 35 37 39 40 40
Wind_Direction
207 206 205 203 204 210 213 215 221 223 228 231 229 230 230 232 241 235 224 223 214 213 214 206 204 206 202 192 186 185 190 196 194 195 198 195 196 197 194 189 188 186 187 194 193 185 183 176 168 159 148 145 142 133 124 117 111 105 101 101 103 109 116 120 124 129 130 132 136 136 131 119 112 116 121 122 122 123 124 124 124 123 122 121 120 118
207 205 205 202 202 208 211 214 220 221 225 229 229 231 233 236 244 242 230 223 218 214 212 210 208 204 198 195 192 189 192 196 196 197 197 197 198 200 199 194 190 188 186 191 193 187 185 180 174 164 153 153 149 137 129 120 111 106 101 100 101 107 115 120 124 131 135 136 138 139 133 122 117 122 127 128 126 127 127 127 126 125 124 123 121 120
207 204 203 200 201 207 209 212 219 224 226 226 228 231 229 232 243 243 233 223 218 213 211 211 208 205 204 206 202 197 195 195 195 196 198 198 200 201 202 198 193 190 186 189 192 187 185 185 180 169 159 158 153 143 139 127 115 110 106 103 102 105 115 121 125 133 139 141 140 140 137 129 124 128 132 132 131 131 130 130 130 130 129 128 127 126
208 204 202 200 202 205 206 209 216 223 228 224 227 234 228 228 239 240 232 222 215 212 211 212 210 211 215 214 208 203 199 198 194 192 196 198 199 202 204 203 197 192 188 186 190 188 185 187 184 174 167 163 159 152 147 136 124 117 111 107 103 103 112 120 127 135 142 146 145 144 143 136 130 131 134 135 134 133 133 133 134 133 132 132 131 130
206 202 203 202 202 204 204 207 211 217 224 221 224 233 232 233 235 234 234 228 219 215 212 213 215 214 217 218 213 206 198 195 194 192 195 199 200 201 203 205 202 195 190 185 188 188 184 187 187 180 175 168 163 160 153 144 134 125 118 113 107 105 108 115 126 135 143 149 150 150 150 144 138 136 138 139 138 137 136 137 137 136 135 134 133 131
203 200 203 204 205 205 203 208 211 211 216 218 226 234 234 234 235 236 237 235 228 225 220 221 225 219 217 215 208 202 194 189 193 192 194 202 203 203 203 205 204 197 192 187 186 189 184 185 188 186 184 175 168 165 161 152 143 135 129 124 118 115 109 112 123 132 141 149 152 153 153 150 147 144 143 144 144 143 141 140 139 138 138 138 136 130
200 198 200 204 210 208 207 213 211 206 213 221 231 233 232 231 236 243 242 238 232 230 230 231 235 224 210 200 193 193 189 185 192 193 193 201 204 204 204 204 204 199 194 189 188 189 186 185 188 191 191 183 175 172 166 159 151 146 142 136 131 128 121 121 124 129 140 149 154 155 156 155 154 153 153 152 152 151 148 146 144 142 143 140 136 131
198 199 202 203 207 207 212 215 208 204 213 234 237 228 231 233 234 244 244 238 235 234 238 238 247 227 202 191 188 191 189 185 194 199 195 199 201 202 204 204 204 200 194 191 190 191 190 187 190 194 195 189 184 179 172 167 160 156 154 148 145 139 132 131 124 123 138 149 152 157 161 162 163 164 164 163 160 158 157 156 153 152 150 146 141 134
194 197 209 206 201 203 211 209 202 204 202 227 238 227 229 234 228 236 241 238 238 233 239 240 241 219 199 196 199 198 195 190 194 200 198 199 200 200 202 203 205 201 195 193 193 195 194 192 193 197 198 196 193 187 180 174 166 163 164 161 160 151 143 145 137 131 139 144 147 154 162 167 171 174 175 175 172 168 167 165 164 164 162 159 154 149
197 202 214 207 200 204 207 200 190 195 200 211 230 229 226 229 223 227 230 232 239 231 233 236 223 216 208 211 213 205 197 189 190 198 201 201 200 199 200 203 205 201 196 195 195 199 199 194 194 198 201 203 200 194 188 182 174 170 170 169 170 163 156 158 159 158 149 139 141 152 160 165 173 179 181 184 184 180 178 175 175 176 175 176 173 172
197 211 217 205 202 203 198 193 182 183 210 209 220 227 222 219 216 224 228 227 233 226 228 238 229 225 227 234 227 209 196 190 193 198 200 200 200 199 200 201 202 200 199 198 196 201 204 199 196 198 202 208 207 201 195 190 184 177 174 175 176 172 170 170 170 173 163 144 143 152 157 160 170 180 184 188 190 189 188 186 188 190 189 189 187 186
189 200 218 211 205 193 173 177 179 189 216 216 221 224 220 220 219 227 240 237 233 229 228 232 229 229 232 246 243 213 197 194 196 198 199 201 202 202 200 199 200 201 203 202 199 203 207 204 201 201 203 209 210 207 202 198 192 185 180 179 181 178 175 177 177 181 180 164 158 158 157 160 167 177 185 192 195 195 196 196 201 204 203 201 197 197
198 193 223 220 209 197 177 171 181 202 208 210 222 220 214 220 225 233 247 242 234 231 227 223 221 234 235 244 255 224 203 198 198 199 199 201 204 204 202 201 200 201 204 206 204 206 209 209 205 204 206 209 211 210 208 206 200 193 190 187 185 183 180 181 183 187 190 183 174 169 169 171 172 177 187 195 199 201 201 204 210 215 217 215 208 208
208 208 228 219 206 203 193 180 181 210 213 211 216 215 213 217 220 235 246 237 234 233 234 234 230 240 238 247 268 230 204 200 202 203 201 200 202 203 203 205 203 202 204 207 208 208 210 213 209 204 207 211 211 210 211 212 208 202 198 197 194 190 185 185 188 191 192 190 186 183 186 190 187 188 193 197 205 211 210 211 216 220 228 233 228 232
213 223 235 228 208 207 204 192 181 196 229 228 222 215 217 220 218 231 239 227 234 237 241 248 240 244 252 267 278 216 197 198 204 206 205 203 202 201 202 204 205 205 205 206 210 211 212 215 213 207 208 211 211 211 212 215 214 210 206 206 205 199 192 190 191 193 196 196 194 193 196 200 201 206 208 206 212 218 220 223 226 230 238 244 246 251
214 225 240 257 237 213 208 206 202 194 202 231 228 219 220 225 228 236 243 238 242 241 243 255 250 247 251 259 259 197 192 197 203 207 208 208 207 205 203 203 205 206 206 207 211 214 215 216 215 212 211 211 211 212 214 216 217 216 213 212 214 211 203 198 195 194 198 201 201 199 201 204 207 215 219 220 225 228 229 231 236 244 249 251 251 249
208 223 231 252 255 231 213 211 217 211 196 200 217 225 225 226 230 235 238 242 249 251 250 255 257 252 247 240 224 199 192 192 201 211 214 214 214 212 206 203 205 206 206 209 213 215 217 216 215 215 215 213 212 212 214 217 217 217 216 215 217 219 214 207 201 198 200 205 207 206 206 208 211 216 221 223 228 234 235 236 239 245 248 248 245 234
178 197 220 234 243 243 222 210 217 218 210 201 196 212 222 222 230 232 231 237 245 252 259 261 261 252 239 241 241 231 213 187 200 223 225 218 214 210 205 203 205 207 207 209 214 217 216 216 215 215 217 217 214 213 214 217 218 217 217 218 218 221 221 215 208 203 203 206 210 211 210 212 214 216 221 225 227 232 235 236 239 240 238 236 234 226
157 166 217 236 235 249 231 210 212 216 212 208 200 202 211 217 229 232 229 234 239 247 261 268 268 254 239 253 261 251 241 211 199 233 235 216 206 202 200 201 204 206 208 209 213 216 217 217 216 215 218 220 217 215 215 216 218 217 218 219 220 221 223 223 217 210 207 208 211 215 214 215 216 215 219 225 228 231 231 231 234 236 233 229 226 224
151 155 196 231 217 242 239 217 211 214 214 213 210 208 208 211 223 229 226 229 236 248 263 266 271 269 253 254 261 264 268 247 216 238 247 211 198 194 194 199 205 207 210 212 212 215 218 219 219 218 220 221 220 219 217 217 218 218 219 221 222 222 223 224 222 217 214 212 213 216 217 219 220 219 220 223 226 230 229 227 230 233 232 229 225 224
154 152 175 231 215 214 233 222 209 212 218 217 216 215 213 212 220 225 222 225 232 239 261 267 269 276 265 252 251 259 271 261 228 227 235 193 190 192 193 200 208 209 210 214 214 215 218 220 221 221 221 222 221 221 222 221 221 220 221 222 224 225 224 223 223 222 219 217 216 217 220 223 224 224 224 223 227 230 227 224 228 231 232 233 231 228
163 166 170 204 236 221 236 230 208 205 216 221 223 223 221 220 222 225 224 224 228 233 256 268 263 260 263 258 253 252 251 256 242 225 217 183 185 194 201 208 214 214 212 213 215 215 217 221 223 223 224 224 223 224 226 225 224 224 223 224 225 226 226 226 225 224 223 222 220 220 222 225 226 227 227 226 228 230 228 227 230 232 232 234 235 235
173 180 175 167 173 207 245 243 211 201 199 210 227 229 226 227 228 226 223 219 222 224 243 263 257 252 263 265 263 257 247 244 243 227 217 205 189 192 203 213 217 218 216 214 215 215 216 220 222 224 225 226 225 226 227 226 225 226 226 226 227 227 228 228 227 226 225 225 224 223 224 227 228 229 230 228 229 230 232 234 234 234 234 234 237 240
187 183 175 163 158 168 205 233 216 204 198 196 208 221 223 226 234 237 230 220 222 220 223 246 250 247 253 258 254 252 245 234 232 233 225 217 209 201 208 218 219 218 217 216 215 214 214 218 220 222 224 227 229 229 229 229 228 228 228 227 228 229 231 230 229 228 227 226 226 224 225 227 229 231 231 231 232 233 235 237 236 237 238 237 238 241
199 195 187 169 143 137 184 220 218 212 210 203 195 217 230 224 225 238 238 227 224 222 224 236 243 242 242 244 245 244 238 227 222 226 228 228 227 221 221 232 231 220 215 215 215 214 214 216 219 222 223 226 230 232 232 231 231 231 230 228 228 229 232 233 232 231 230 228 228 227 226 227 229 231 232 232 233 234 235 236 236 237 239 239 240 241
201 201 198 186 162 156 185 200 200 210 216 208 196 200 224 224 215 220 235 251 256 245 235 237 242 248 247 243 246 245 238 232 227 222 221 228 232 230 227 239 249 229 210 210 215 215 215 217 220 224 225 224 228 233 234 233 232 232 231 229 227 228 231 234 234 235 234 232 231 230 229 229 230 231 233 233 234 235 235 236 237 237 238 238 239 240
202 204 201 197 193 188 184 182 187 199 207 215 216 208 200 207 215 209 200 227 266 259 244 240 240 243 245 241 238 235 232 237 240 234 225 226 233 235 230 235 248 240 216 214 219 217 215 218 221 223 224 223 226 231 233 233 233 231 230 229 228 230 231 233 234 235 237 236 235 235 234 233 233 233 234 234 234 235 235 236 239 239 239 240 239 239
205 208 203 201 201 196 182 178 190 204 191 204 240 234 216 209 215 210 196 205 245 252 247 242 238 238 238 238 236 226 218 223 231 233 234 234 234 235 233 231 234 233 223 222 225 219 215 217 219 220 222 223 227 230 232 234 235 234 232 230 232 234 233 232 233 233 235 237 237 238 238 237 237 237 237 237 236 237 238 238 238 239 240 243 244 244
208 208 200 196 199 199 191 186 190 190 167 162 233 253 238 228 217 203 205 224 237 245 252 246 239 240 239 237 244 238 225 226 226 226 234 233 228 229 231 231 230 231 229 229 230 220 215 216 217 220 225 225 224 228 232 235 236 234 231 227 230 235 233 232 232 231 233 236 237 239 240 240 241 241 241 240 239 238 239 240 240 241 240 241 243 245
210 207 203 195 195 201 205 204 203 183 157 154 196 229 228 233 233 219 221 234 235 241 269 261 242 239 240 239 245 246 240 240 237 232 232 230 225 225 227 230 235 234 227 226 228 217 210 212 217 223 229 230 226 227 231 233 232 230 229 226 229 233 233 233 234 232 233 234 235 238 241 241 242 243 243 243 242 240 240 240 242 243 243 242 242 243
209 205 207 201 199 202 203 215 222 200 170 177 206 206 191 189 206 214 219 233 230 225 255 264 248 239 239 238 238 240 243 247 246 242 240 236 229 217 211 219 234 232 221 217 218 210 201 205 214 222 231 234 233 231 231 232 231 232 232 232 232 234 234 234 236 236 236 237 238 239 241 242 243 244 244 244 244 243 243 242 242 243 244 245 245 244
205 201 204 202 203 201 194 208 225 210 195 215 220 208 193 190 196 200 200 207 212 206 214 235 241 238 237 236 233 232 234 243 248 249 248 245 241 230 208 204 218 222 216 215 216 214 212 213 219 226 231 235 238 235 232 232 232 234 236 236 236 237 236 235 236 236 236 238 240 241 243 245 246 246 245 245 244 244 244 244 244 244 244 245 247 247
199 200 200 193 190 186 171 185 216 211 210 228 227 210 200 202 205 204 199 200 208 210 213 224 230 231 233 235 235 233 230 236 246 252 255 253 249 243 234 227 226 221 217 218 221 223 221 219 222 228 232 236 241 244 241 236 231 231 234 236 236 238 238 236 236 236 237 240 241 241 241 243 245 247 246 246 246 245 245 245 246 246 246 247 248 248
200 199 199 194 188 184 176 177 195 200 209 227 229 214 206 211 213 209 205 204 207 213 221 228 229 229 231 233 235 236 231 230 235 244 252 253 247 243 239 236 237 239 234 226 224 224 222 221 225 228 230 234 239 246 253 248 236 232 235 238 238 239 240 239 237 237 239 243 244 245 245 246 247 248 247 246 245 245 245 245 246 248 248 248 249 250
208 200 200 200 196 194 195 188 186 195 209 223 228 219 211 217 219 216 215 213 211 214 223 229 230 230 233 234 234 231 228 229 231 233 241 246 245 243 241 235 233 237 239 236 232 232 230 227 231 234 233 233 235 241 251 256 246 238 238 241 242 241 241 241 238 237 241 244 244 243 245 246 246 247 248 247 246 246 246 246 246 247 249 251 252 253
220 209 206 205 201 201 203 195 190 198 208 218 226 223 218 221 222 220 220 220 218 220 225 230 231 232 234 237 238 234 229 231 235 235 238 244 247 245 240 237 234 233 238 242 243 245 245 239 238 240 240 238 235 237 243 250 250 242 239 242 245 245 244 242 238 237 240 244 245 244 244 244 243 244 246 249 249 248 246 246 246 247 250 253 256 257
224 219 213 209 205 206 207 202 200 203 206 215 224 223 219 222 223 222 222 223 224 226 229 230 232 234 234 235 240 244 239 234 237 242 243 244 244 241 237 239 239 237 238 242 246 248 248 245 243 243 245 246 245 242 242 244 246 245 244 247 250 253 252 246 239 236 239 242 244 246 247 247 246 244 245 248 250 248 245 244 245 246 248 251 254 256
222 222 218 212 208 207 207 208 208 207 208 216 225 225 221 222 223 222 222 223 225 227 229 230 230 233 235 235 237 243 243 238 239 245 246 239 233 233 235 237 239 240 240 241 243 246 247 247 247 246 247 249 250 251 250 248 247 247 249 253 258 264 266 253 240 235 240 246 248 248 248 248 247 246 244 245 248 248 246 245 246 248 249 251 254 254
219 221 219 217 214 211 209 212 216 215 214 216 223 229 229 225 225 226 226 226 225 224 227 229 228 229 231 230 231 235 237 236 235 236 236 233 229 230 232 233 234 239 242 242 242 244 246 247 248 248 249 250 251 252 254 253 251 250 250 254 259 265 270 264 244 235 240 250 253 252 249 248 247 245 242 242 245 246 246 244 245 249 251 254 256 254
213 218 219 218 220 218 217 220 223 223 221 221 223 228 230 228 227 228 230 229 227 226 228 229 230 230 225 222 229 237 238 237 233 228 227 229 228 229 233 234 236 239 241 243 243 244 245 248 249 250 251 252 252 253 254 255 255 254 253 254 258 259 262 264 254 243 244 250 254 255 253 248 246 244 242 242 245 247 247 246 247 251 253 254 255 253
211 215 216 214 219 222 224 228 231 229 227 228 229 231 232 230 228 230 232 231 229 230 230 230 235 238 233 229 234 238 236 235 234 231 231 232 231 232 235 238 240 241 242 244 245 245 245 247 249 251 251 252 252 253 253 254 255 256 256 257 258 259 260 262 260 256 254 254 255 258 254 246 243 243 243 244 245 246 247 247 248 250 253 254 253 251
212 215 216 215 216 219 221 226 230 230 230 230 231 232 231 229 228 230 232 233 233 235 235 236 240 244 242 239 239 238 238 242 246 248 247 241 235 234 235 237 240 241 243 245 246 247 246 246 247 250 251 252 253 253 254 254 255 256 258 258 258 260 262 263 262 261 259 256 256 260 255 246 243 244 245 246 246 245 247 249 249 250 252 252 249 247
221 219 217 215 216 220 222 226 229 231 232 233 231 229 229 228 228 230 233 235 237 238 239 241 243 244 244 244 243 242 244 248 252 256 257 250 239 236 236 237 238 240 242 245 248 249 250 249 249 250 251 253 253 254 255 256 257 259 261 261 261 260 259 259 259 258 255 256 259 258 255 252 250 247 247 247 244 243 245 246 243 241 243 245 243 241
232 229 226 221 221 225 228 231 234 235 236 237 235 233 231 230 230 231 233 236 238 239 241 242 243 244 245 247 249 250 250 252 255 258 260 255 249 246 244 242 241 241 242 245 248 249 251 252 251 250 250 251 252 254 255 255 255 256 259 260 259 255 252 251 253 253 253 257 262 261 259 260 259 256 260 257 247 240 239 237 234 235 239 243 244 243
233 235 235 230 230 234 236 235 237 239 241 243 243 240 236 234 234 234 234 236 238 240 242 244 245 245 245 247 250 253 254 256 256 257 257 255 253 253 251 247 243 241 240 242 245 248 250 252 251 250 250 249 250 252 253 254 253 250 249 251 252 250 249 249 251 252 253 258 263 266 268 270 266 262 265 265 255 247 243 239 240 248 253 254 252 250
233 237 239 235 233 237 240 239 239 240 241 243 244 242 238 236 236 237 237 237 238 239 242 244 246 247 246 246 247 249 251 254 255 256 256 255 254 254 254 248 241 238 238 239 240 242 246 249 249 249 249 248 247 248 248 251 252 248 244 245 249 251 254 255 256 257 257 259 264 268 270 271 269 266 265 263 260 261 260 253 255 264 268 264 260 257
232 235 239 239 237 239 242 243 243 243 243 243 243 241 239 238 237 238 240 240 241 242 244 246 247 248 249 249 249 250 251 253 254 255 255 254 254 254 252 247 241 237 237 238 239 239 242 245 246 247 248 247 246 246 247 249 251 250 247 248 251 254 255 257 259 260 260 260 262 265 266 266 266 267 269 267 266 267 268 265 265 267 265 259 256 257
236 236 238 239 239 240 243 244 245 246 246 246 245 243 242 241 239 238 240 242 243 243 245 248 250 251 252 252 252 251 251 252 253 254 254 254 255 254 253 250 247 244 242 241 241 241 242 243 244 246 247 248 247 247 248 249 251 252 252 252 254 256 256 257 258 259 261 261 260 261 261 262 262 263 264 264 264 264 263 262 260 257 254 252 253 255
236 239 241 242 243 244 246 248 247 247 247 247 247 247 245 243 243 242 241 242 243 244 245 247 251 254 254 254 253 251 250 251 253 254 255 255 255 255 254 252 250 250 249 246 245 245 244 244 244 246 248 250 250 249 250 250 251 253 254 253 254 255 256 257 257 258 259 260 260 259 257 254 253 255 256 257 258 258 257 255 251 248 247 248 250 251
243 245 245 247 248 248 251 255 255 253 251 249 248 247 246 245 244 244 244 243 244 245 246 247 250 253 255 256 256 256 255 253 252 253 255 256 257 257 255 254 255 256 257 254 250 248 247 246 246 247 249 251 252 252 252 252 253 254 255 254 254 255 256 256 256 256 257 257 256 256 254 248 244 244 248 251 254 254 252 249 246 245 245 246 247 248
247 250 250 252 253 253 253 255 257 257 257 254 251 250 249 248 245 244 245 245 246 247 248 248 249 252 254 257 258 259 258 256 255 255 256 257 259 260 260 261 262 262 261 260 258 255 253 251 249 249 249 250 252 253 254 255 255 255 256 255 254 254 254 254 253 254 255 255 253 251 250 246 242 240 241 244 248 250 250 248 246 245 246 246 247 247
Height
5852 5856 5859 5863 5868 5871 5873 5875 5876 5878 5879 5879 5881 5882 5883 5885 5885 5885 5886 5885 5886 5888 5890 5892 5894 5895 5898 5900 5902 5903 5905 5906 5907 5909 5910 5912 5913 5914 5915 5915 5916 5917 5918 5920 5921 5922 5923 5924 5925 5926 5927 5928 5928 5929 5929 5930 5931 5931 5932 5932 5932 5933 5933 5934 5935 5936 5936 5937 5938 5938 5939 5940 5941 5941 5942 5943 5944 5945 5946 5947 5949 5950 5951 5952 5953 5954
5850 5854 5858 5863 5866 5868 5871 5873 5874 5876 5877 5878 5879 5880 5881 5883 5883 5884 5885 5885 5885 5887 5889 5891 5893 5895 5897 5899 5901 5902 5904 5906 5908 5909 5910 5911 5912 5914 5915 5915 5916 5917 5918 5919 5921 5922 5923 5924 5925 5926 5927 5928 5929 5929 5930 5930 5931 5932 5933 5933 5934 5934 5934 5935 5936 5937 5938 5938 5939 5940 5941 5942 5942 5943 5944 5945 5946 5947 5948 5949 5951 5952 5953 5954 5955 5955
5849 5853 5857 5861 5864 5866 5869 5871 5873 5875 5876 5877 5878 5878 5880 5882 5882 5883 5883 5883 5884 5886 5888 5890 5891 5894 5896 5898 5900 5901 5903 5905 5906 5908 5909 5911 5912 5914 5915 5916 5916 5917 5918 5919 5921 5922 5923 5924 5926 5927 5927 5928 5929 5930 5930 5931 5932 5933 5934 5934 5935 5935 5935 5936 5937 5938 5939 5939 5940 5941 5943 5943 5944 5945 5946 5947 5948 5949 5950 5951 5952 5953 5954 5955 5957 5957
5848 5853 5857 5859 5861 5864 5867 5870 5872 5873 5873 5876 5877 5877 5878 5880 5881 5882 5882 5882 5884 5885 5886 5888 5890 5892 5894 5896 5898 5900 5902 5903 5904 5906 5908 5910 5911 5913 5914 5916 5917 5917 5918 5919 5921 5922 5923 5925 5926 5927 5928 5929 5930 5930 5931 5932 5933 5934 5935 5936 5937 5937 5937 5937 5937 5939 5940 5941 5941 5943 5944 5944 5946 5947 5948 5948 5950 5951 5951 5952 5954 5955 5956 5957 5958 5959
5847 5853 5856 5857 5859 5861 5865 5868 5870 5871 5871 5874 5876 5876 5877 5879 5881 5881 5881 5882 5883 5884 5885 5887 5889 5891 5892 5894 5897 5899 5900 5902 5903 5904 5906 5909 5910 5912 5913 5915 5916 5917 5918 5919 5920 5922 5923 5924 5926 5927 5928 5929 5930 5931 5932 5933 5934 5935 5936 5937 5938 5939 5939 5938 5939 5940 5941 5942 5943 5944 5945 5946 5947 5948 5949 5950 5951 5952 5953 5954 5955 5956 5957 5958 5959 5960
5846 5851 5853 5856 5858 5860 5862 5864 5867 5870 5871 5873 5874 5875 5876 5877 5879 5881 5881 5881 5882 5883 5884 5886 5887 5888 5890 5892 5894 5897 5898 5899 5901 5903 5905 5908 5910 5911 5913 5914 5916 5917 5917 5918 5920 5921 5923 5924 5926 5927 5928 5929 5930 5931 5932 5933 5934 5935 5936 5937 5938 5939 5940 5940 5940 5941 5942 5943 5944 5945 5946 5947 5948 5949 5950 5951 5952 5953 5954 5955 5956 5957 5958 5959 5960 5961
5845 5849 5852 5855 5856 5859 5861 5862 5866 5869 5871 5872 5872 5873 5875 5876 5877 5879 5881 5881 5881 5882 5883 5884 5884 5885 5887 5890 5892 5896 5897 5898 5901 5902 5904 5907 5909 5911 5912 5914 5916 5917 5917 5918 5920 5921 5922 5923 5925 5927 5928 5929 5930 5931 5932 5933 5935 5936 5937 5938 5939 5940 5941 5941 5941 5942 5942 5944 5945 5946 5947 5948 5949 5950 5951 5952 5953 5954 5955 5956 5957 5958 5959 5960 5961 5962
5845 5848 5849 5851 5853 5857 5859 5861 5865 5869 5872 5873 5871 5872 5874 5875 5875 5877 5879 5880 5880 5882 5882 5882 5882 5882 5885 5889 5891 5894 5895 5897 5900 5902 5903 5906 5908 5910 5912 5913 5915 5916 5917 5918 5919 5921 5922 5923 5925 5926 5928 5929 5930 5931 5933 5934 5935 5936 5937 5938 5939 5940 5941 5942 5943 5943 5944 5945 5946 5947 5948 5949 5950 5951 5952 5953 5954 5954 5955 5957 5958 5959 5960 5961 5962 5962
5844 5845 5846 5848 5852 5855 5857 5860 5864 5870 5874 5872 5869 5870 5873 5873 5874 5876 5877 5878 5879 5881 5881 5882 5882 5882 5884 5888 5890 5892 5894 5896 5899 5901 5903 5905 5908 5909 5911 5913 5914 5916 5917 5918 5919 5920 5921 5923 5925 5926 5928 5929 5930 5931 5933 5934 5935 5936 5937 5939 5940 5940 5942 5943 5944 5945 5946 5946 5947 5948 5949 5950 5951 5952 5953 5954 5954 5955 5956 5957 5958 5959 5960 5961 5962 5963
5843 5844 5843 5846 5851 5853 5856 5859 5863 5870 5872 5869 5867 5869 5871 5872 5873 5875 5876 5878 5879 5880 5881 5881 5882 5883 5885 5887 5888 5889 5892 5895 5898 5901 5903 5905 5907 5908 5910 5912 5913 5915 5916 5917 5918 5920 5921 5923 5924 5926 5927 5928 5930 5931 5933 5934 5935 5937 5938 5939 5940 5941 5942 5943 5944 5946 5947 5947 5947 5948 5950 5951 5952 5953 5954 5955 5955 5956 5957 5958 5959 5960 5961 5962 5963 5963
5842 5844 5842 5844 5848 5851 5856 5858 5861 5867 5869 5866 5866 5867 5869 5871 5873 5874 5875 5877 5878 5879 5881 5881 5882 5882 5884 5885 5886 5888 5892 5895 5897 5900 5902 5904 5906 5908 5909 5911 5912 5914 5916 5917 5918 5919 5921 5922 5924 5926 5927 5928 5930 5931 5932 5934 5935 5936 5938 5939 5940 5941 5942 5944 5945 5946 5948 5948 5948 5949 5950 5951 5952 5953 5954 5955 5956 5957 5958 5959 5960 5961 5962 5962 5963 5964
5838 5842 5842 5842 5845 5849 5854 5857 5862 5866 5867 5868 5867 5865 5868 5872 5873 5875 5875 5877 5878 5879 5880 5881 5881 5882 5883 5884 5884 5887 5891 5892 5895 5899 5901 5903 5905 5907 5908 5910 5911 5913 5915 5917 5918 5919 5920 5922 5923 5925 5927 5928 5930 5931 5932 5934 5935 5936 5938 5939 5940 5941 5943 5944 5945 5946 5947 5948 5949 5950 5951 5952 5953 5954 5955 5956 5957 5958 5959 5960 5961 5962 5962 5963 5964 5964
5837 5841 5842 5841 5843 5848 5850 5854 5861 5864 5864 5866 5865 5864 5868 5871 5873 5874 5875 5876 5877 5878 5880 5880 5881 5882 5882 5883 5883 5884 5887 5890 5893 5896 5899 5902 5904 5906 5907 5909 5911 5912 5914 5916 5918 5919 5920 5922 5923 5925 5926 5927 5929 5931 5932 5933 5935 5936 5937 5939 5940 5941 5943 5944 5945 5946 5947 5948 5949 5950 5951 5952 5953 5954 5955 5957 5958 5958 5959 5961 5961 5962 5963 5964 5964 5964
5839 5840 5839 5839 5843 5847 5848 5851 5859 5862 5861 5863 5863 5865 5868 5870 5872 5874 5874 5875 5876 5877 5878 5879 5880 5881 5881 5881 5881 5881 5884 5887 5890 5893 5897 5900 5903 5905 5906 5908 5910 5911 5913 5915 5917 5918 5920 5921 5922 5924 5925 5927 5929 5931 5932 5933 5934 5936 5937 5939 5940 5941 5942 5944 5945 5946 5947 5949 5950 5950 5952 5953 5954 5955 5956 5957 5958 5959 5960 5961 5962 5962 5963 5964 5964 5965
5840 5840 5840 5841 5843 5845 5848 5851 5856 5860 5861 5861 5863 5866 5868 5869 5872 5872 5872 5873 5875 5876 5877 5878 5879 5880 5880 5880 5879 5878 5881 5885 5888 5892 5895 5898 5900 5902 5904 5906 5908 5910 5912 5914 5916 5917 5919 5920 5921 5923 5924 5926 5928 5930 5931 5932 5934 5936 5937 5939 5940 5941 5942 5944 5945 5946 5947 5949 5950 5951 5952 5953 5954 5955 5956 5957 5958 5959 5960 5961 5962 5962 5963 5964 5964 5965
5840 5841 5842 5843 5843 5844 5847 5851 5853 5857 5861 5861 5863 5865 5867 5869 5870 5870 5871 5872 5874 5876 5876 5877 5878 5879 5880 5880 5880 5880 5882 5885 5888 5891 5894 5896 5898 5900 5902 5905 5907 5909 5911 5912 5914 5916 5918 5919 5920 5922 5923 5925 5927 5929 5931 5932 5934 5935 5937 5938 5939 5941 5942 5943 5945 5946 5947 5948 5949 5951 5952 5953 5954 5955 5956 5957 5958 5959 5960 5960 5961 5962 5963 5964 5964 5965
5838 5843 5844 5842 5842 5842 5845 5850 5851 5855 5859 5860 5863 5866 5867 5868 5869 5869 5871 5873 5874 5875 5876 5876 5878 5879 5880 5880 5881 5882 5883 5885 5888 5889 5891 5894 5896 5898 5901 5903 5905 5907 5909 5911 5913 5914 5917 5918 5919 5921 5922 5923 5925 5927 5929 5931 5933 5934 5936 5937 5939 5940 5942 5943 5944 5945 5947 5948 5949 5950 5951 5953 5954 5955 5956 5957 5958 5958 5959 5960 5961 5961 5962 5963 5964 5965
5835 5841 5843 5841 5840 5841 5843 5848 5850 5853 5857 5860 5863 5866 5867 5867 5868 5869 5872 5873 5874 5875 5875 5876 5877 5878 5879 5880 5880 5882 5884 5886 5888 5888 5888 5889 5892 5895 5899 5902 5904 5906 5908 5909 5911 5913 5915 5917 5918 5920 5921 5922 5924 5925 5928 5930 5932 5933 5935 5936 5938 5939 5940 5942 5943 5945 5946 5947 5948 5950 5951 5952 5953 5954 5956 5956 5957 5958 5959 5960 5961 5961 5962 5963 5964 5965
5833 5839 5842 5840 5840 5841 5841 5845 5848 5851 5855 5857 5860 5863 5865 5866 5867 5868 5871 5873 5874 5874 5874 5875 5876 5877 5878 5879 5879 5880 5882 5885 5886 5886 5885 5885 5887 5892 5897 5900 5902 5904 5905 5907 5909 5911 5914 5915 5916 5918 5919 5921 5922 5924 5926 5928 5930 5932 5934 5935 5937 5938 5939 5941 5943 5944 5945 5946 5948 5949 5950 5951 5953 5954 5955 5956 5957 5958 5958 5959 5960 5961 5962 5963 5964 5964
5832 5837 5839 5838 5839 5841 5840 5842 5847 5850 5852 5855 5858 5861 5863 5864 5866 5867 5869 5872 5873 5873 5874 5874 5875 5876 5877 5877 5878 5878 5880 5882 5884 5885 5883 5883 5885 5890 5894 5898 5900 5902 5904 5906 5908 5910 5912 5914 5915 5916 5918 5919 5921 5923 5924 5926 5929 5931 5932 5934 5935 5937 5939 5940 5942 5943 5944 5945 5947 5948 5949 5950 5952 5953 5954 5955 5956 5957 5958 5959 5960 5960 5961 5962 5963 5964
5831 5835 5838 5838 5839 5841 5840 5841 5846 5850 5852 5854 5857 5860 5862 5864 5865 5866 5868 5871 5873 5874 5874 5873 5874 5875 5875 5876 5877 5878 5879 5880 5882 5884 5883 5883 5886 5889 5893 5896 5898 5900 5902 5905 5907 5909 5911 5912 5914 5915 5916 5918 5920 5921 5923 5925 5927 5929 5931 5932 5934 5936 5938 5939 5940 5942 5943 5944 5946 5947 5949 5949 5951 5952 5953 5954 5955 5956 5957 5958 5959 5960 5961 5962 5963 5963
5829 5833 5836 5837 5839 5841 5840 5841 5845 5849 5851 5854 5856 5859 5862 5864 5864 5865 5868 5871 5873 5874 5874 5872 5873 5874 5874 5875 5876 5878 5878 5879 5881 5884 5884 5886 5888 5890 5893 5895 5897 5899 5900 5903 5905 5907 5909 5911 5912 5913 5915 5916 5918 5920 5922 5924 5926 5927 5929 5931 5932 5934 5936 5938 5939 5940 5942 5943 5945 5946 5948 5949 5950 5951 5952 5953 5954 5955 5956 5957 5958 5958 5960 5961 5962 5962
5826 5829 5832 5834 5837 5840 5841 5842 5844 5847 5851 5855 5857 5858 5861 5863 5863 5864 5867 5869 5871 5873 5873 5872 5872 5873 5873 5873 5875 5876 5877 5879 5881 5883 5885 5886 5888 5889 5891 5893 5894 5896 5898 5900 5903 5905 5907 5908 5910 5911 5913 5915 5917 5918 5920 5922 5924 5926 5927 5929 5930 5932 5934 5936 5938 5939 5940 5942 5944 5945 5947 5948 5949 5950 5950 5952 5953 5954 5954 5955 5957 5958 5959 5960 5961 5961
5825 5829 5831 5833 5835 5839 5842 5843 5843 5846 5849 5852 5855 5857 5859 5861 5863 5864 5866 5868 5869 5871 5872 5871 5870 5872 5872 5872 5874 5875 5877 5879 5881 5882 5884 5885 5887 5888 5889 5891 5893 5894 5896 5898 5900 5903 5905 5906 5907 5909 5911 5914 5915 5917 5918 5921 5923 5924 5926 5927 5929 5930 5932 5934 5936 5937 5939 5940 5942 5944 5945 5946 5947 5948 5949 5950 5951 5952 5953 5954 5955 5956 5958 5959 5959 5960
5824 5827 5831 5833 5836 5840 5844 5843 5843 5845 5847 5851 5855 5858 5859 5860 5863 5865 5866 5866 5867 5869 5870 5869 5868 5871 5871 5871 5873 5875 5876 5878 5879 5881 5882 5884 5885 5887 5889 5890 5891 5892 5894 5896 5898 5900 5902 5904 5905 5907 5910 5912 5914 5915 5917 5919 5921 5923 5924 5926 5927 5928 5930 5932 5933 5935 5937 5938 5940 5942 5943 5944 5945 5947 5948 5949 5950 5951 5952 5953 5954 5955 5956 5957 5958 5959
5821 5823 5827 5831 5834 5838 5841 5842 5844 5846 5847 5850 5854 5856 5858 5859 5862 5865 5866 5867 5867 5868 5869 5867 5867 5870 5871 5871 5872 5873 5874 5876 5877 5878 5880 5883 5884 5886 5888 5890 5890 5891 5892 5894 5896 5897 5900 5902 5903 5905 5908 5910 5911 5913 5915 5917 5919 5921 5923 5924 5926 5927 5928 5930 5931 5933 5935 5936 5938 5940 5941 5942 5944 5945 5946 5947 5949 5950 5951 5952 5952 5953 5954 5955 5956 5958
5819 5821 5824 5828 5830 5833 5836 5839 5842 5844 5846 5850 5851 5852 5855 5858 5860 5862 5865 5868 5868 5867 5866 5866 5866 5868 5869 5870 5871 5873 5874 5875 5876 5877 5878 5880 5882 5884 5886 5888 5889 5890 5891 5892 5893 5895 5898 5900 5901 5904 5907 5909 5909 5910 5913 5915 5917 5919 5921 5923 5924 5925 5926 5928 5929 5931 5932 5934 5936 5937 5939 5940 5942 5943 5944 5946 5947 5948 5949 5950 5951 5952 5953 5954 5955 5956
5817 5820 5824 5827 5830 5832 5834 5836 5839 5842 5845 5849 5852 5852 5853 5856 5859 5860 5864 5867 5867 5865 5864 5864 5865 5866 5866 5868 5870 5872 5874 5875 5876 5877 5878 5879 5880 5882 5884 5887 5888 5888 5889 5890 5891 5893 5896 5897 5899 5902 5904 5906 5908 5909 5912 5913 5915 5917 5919 5921 5922 5923 5924 5926 5927 5929 5931 5932 5934 5935 5936 5938 5939 5941 5942 5943 5945 5946 5947 5948 5949 5950 5951 5952 5953 5954
5816 5819 5822 5825 5829 5833 5835 5836 5838 5841 5845 5848 5852 5854 5854 5855 5857 5860 5865 5866 5865 5864 5864 5863 5863 5863 5865 5867 5869 5871 5873 5875 5876 5877 5877 5878 5879 5880 5882 5885 5885 5885 5887 5889 5890 5892 5894 5896 5898 5901 5902 5904 5907 5909 5911 5913 5914 5915 5917 5919 5920 5920 5922 5923 5925 5927 5929 5930 5932 5933 5934 5936 5937 5938 5940 5941 5943 5944 5945 5945 5946 5947 5948 5949 5951 5951
5814 5817 5819 5822 5825 5830 5834 5836 5838 5840 5844 5848 5851 5852 5853 5856 5858 5860 5862 5863 5863 5864 5864 5862 5860 5861 5864 5867 5867 5868 5871 5873 5875 5876 5876 5878 5879 5879 5880 5882 5883 5884 5885 5887 5889 5891 5892 5894 5897 5899 5900 5902 5906 5908 5909 5911 5913 5913 5914 5916 5917 5918 5919 5921 5922 5924 5926 5928 5930 5931 5932 5933 5935 5936 5937 5939 5940 5941 5942 5943 5943 5944 5945 5947 5948 5949
5812 5816 5818 5820 5823 5826 5830 5836 5838 5839 5843 5846 5846 5846 5848 5852 5855 5855 5856 5857 5859 5863 5865 5861 5858 5859 5862 5865 5867 5867 5869 5870 5872 5873 5874 5876 5878 5879 5880 5881 5882 5882 5882 5884 5887 5889 5891 5892 5894 5896 5898 5899 5902 5905 5906 5908 5910 5912 5913 5914 5915 5915 5917 5919 5920 5922 5924 5926 5927 5928 5929 5931 5932 5933 5935 5936 5937 5938 5939 5940 5941 5941 5942 5944 5945 5946
5810 5813 5816 5820 5823 5825 5829 5835 5837 5839 5842 5842 5840 5841 5843 5845 5845 5846 5849 5851 5852 5855 5858 5856 5855 5857 5860 5863 5865 5866 5867 5868 5869 5870 5872 5874 5875 5877 5879 5882 5883 5883 5881 5882 5884 5887 5889 5891 5892 5894 5896 5897 5898 5900 5902 5904 5906 5909 5910 5911 5912 5913 5915 5917 5919 5921 5923 5924 5925 5926 5927 5928 5929 5931 5932 5934 5935 5935 5936 5937 5938 5939 5940 5941 5942 5943
5808 5810 5813 5817 5820 5823 5827 5832 5836 5838 5840 5837 5834 5837 5841 5841 5840 5842 5845 5847 5848 5850 5851 5852 5853 5856 5858 5861 5862 5864 5866 5867 5868 5869 5870 5871 5873 5873 5875 5879 5881 5881 5880 5880 5881 5883 5886 5888 5890 5892 5893 5894 5895 5897 5899 5900 5902 5904 5906 5907 5908 5909 5911 5914 5917 5919 5921 5922 5924 5925 5925 5925 5927 5928 5929 5930 5931 5932 5933 5934 5935 5936 5937 5937 5938 5939
5806 5809 5812 5814 5816 5819 5822 5826 5830 5832 5833 5830 5829 5834 5838 5837 5838 5841 5842 5844 5847 5849 5850 5851 5853 5854 5856 5858 5859 5861 5863 5865 5866 5867 5867 5869 5871 5871 5872 5874 5875 5875 5876 5878 5880 5881 5882 5884 5887 5889 5891 5892 5893 5894 5895 5896 5897 5899 5901 5902 5905 5906 5907 5910 5913 5916 5917 5919 5921 5923 5925 5925 5925 5926 5927 5927 5927 5928 5929 5930 5932 5933 5933 5934 5935 5936
5805 5807 5809 5812 5815 5817 5819 5821 5824 5825 5826 5825 5826 5831 5834 5834 5835 5839 5840 5842 5846 5847 5848 5849 5851 5853 5854 5855 5857 5859 5860 5862 5864 5865 5866 5867 5868 5869 5870 5870 5871 5872 5873 5875 5878 5879 5879 5881 5884 5886 5888 5889 5890 5891 5892 5893 5894 5895 5897 5899 5901 5902 5903 5906 5910 5912 5914 5915 5916 5918 5920 5922 5922 5923 5924 5923 5924 5925 5926 5927 5928 5929 5930 5932 5933 5935
5805 5806 5808 5810 5813 5815 5818 5819 5820 5821 5823 5823 5823 5827 5831 5831 5833 5835 5837 5840 5843 5844 5844 5846 5849 5851 5852 5853 5855 5857 5858 5859 5861 5863 5864 5865 5866 5867 5868 5867 5868 5870 5871 5872 5874 5875 5877 5879 5881 5883 5884 5886 5888 5889 5890 5891 5892 5894 5895 5897 5898 5899 5900 5902 5905 5907 5908 5909 5911 5913 5915 5916 5917 5918 5919 5920 5921 5922 5923 5923 5924 5925 5928 5929 5931 5934
5804 5805 5807 5809 5811 5814 5816 5818 5818 5819 5820 5820 5820 5823 5826 5828 5830 5833 5835 5837 5840 5841 5842 5843 5846 5847 5848 5850 5852 5854 5855 5856 5858 5860 5861 5863 5863 5864 5865 5865 5866 5869 5870 5870 5871 5873 5875 5877 5878 5880 5882 5883 5885 5887 5888 5890 5891 5892 5894 5895 5895 5896 5896 5897 5900 5902 5903 5904 5907 5909 5910 5912 5913 5914 5916 5918 5919 5920 5919 5919 5920 5922 5924 5925 5927 5929
5803 5804 5805 5808 5810 5812 5814 5815 5816 5817 5817 5818 5819 5821 5823 5825 5827 5830 5832 5834 5837 5838 5839 5841 5843 5844 5845 5847 5849 5851 5852 5852 5853 5855 5857 5859 5860 5860 5862 5863 5865 5866 5867 5868 5870 5871 5873 5875 5877 5879 5880 5882 5883 5885 5886 5888 5889 5890 5892 5893 5894 5894 5893 5893 5895 5898 5900 5901 5903 5905 5906 5907 5908 5911 5913 5915 5916 5916 5916 5917 5918 5919 5920 5921 5922 5923
5801 5802 5804 5807 5808 5809 5811 5813 5813 5813 5814 5816 5818 5819 5820 5823 5825 5828 5829 5831 5834 5836 5836 5838 5840 5842 5844 5845 5847 5848 5848 5847 5848 5850 5852 5854 5856 5857 5858 5860 5862 5863 5864 5866 5868 5869 5871 5872 5874 5876 5878 5880 5881 5883 5884 5885 5886 5888 5890 5891 5892 5892 5891 5891 5892 5895 5897 5899 5899 5900 5901 5902 5903 5906 5908 5910 5911 5912 5913 5914 5915 5916 5917 5918 5917 5918
5799 5801 5802 5805 5806 5807 5809 5810 5810 5811 5812 5815 5816 5817 5819 5821 5823 5825 5826 5827 5830 5832 5832 5834 5837 5840 5842 5843 5844 5844 5845 5845 5846 5846 5848 5850 5851 5853 5855 5857 5859 5861 5862 5863 5865 5866 5868 5870 5872 5873 5875 5877 5878 5880 5881 5882 5883 5885 5887 5889 5890 5889 5889 5889 5891 5892 5894 5895 5896 5896 5896 5896 5898 5900 5903 5906 5907 5908 5909 5910 5911 5912 5913 5913 5913 5913
5797 5798 5800 5802 5804 5805 5807 5808 5808 5809 5811 5813 5814 5816 5817 5819 5820 5821 5821 5823 5826 5828 5830 5832 5834 5835 5838 5840 5841 5842 5842 5843 5844 5845 5846 5847 5848 5850 5853 5855 5856 5858 5859 5860 5862 5864 5866 5867 5869 5870 5871 5873 5874 5876 5877 5878 5879 5881 5883 5884 5885 5885 5886 5888 5889 5890 5891 5892 5892 5892 5892 5892 5893 5895 5898 5901 5903 5904 5905 5906 5907 5908 5908 5908 5908 5909
5795 5797 5798 5800 5801 5803 5804 5805 5805 5806 5809 5811 5813 5814 5816 5816 5817 5817 5819 5821 5823 5825 5828 5830 5830 5831 5833 5835 5837 5839 5840 5840 5841 5842 5844 5846 5846 5847 5849 5850 5852 5853 5855 5857 5858 5860 5862 5863 5865 5866 5867 5869 5870 5872 5873 5875 5876 5877 5879 5880 5880 5882 5883 5885 5886 5886 5887 5887 5888 5889 5889 5890 5891 5892 5894 5896 5898 5900 5901 5901 5903 5905 5904 5903 5905 5906
5794 5796 5796 5797 5798 5800 5801 5802 5803 5805 5807 5809 5811 5812 5813 5813 5813 5815 5817 5819 5821 5823 5825 5826 5827 5828 5829 5830 5832 5835 5837 5836 5837 5838 5841 5844 5845 5846 5846 5847 5848 5849 5851 5853 5854 5856 5858 5859 5860 5862 5863 5865 5866 5868 5869 5871 5872 5873 5874 5875 5876 5877 5879 5880 5881 5882 5883 5883 5883 5885 5886 5888 5889 5889 5890 5891 5892 5894 5896 5896 5898 5899 5898 5897 5900 5901
5793 5794 5795 5796 5797 5798 5799 5800 5802 5803 5804 5806 5808 5809 5810 5811 5812 5814 5815 5817 5819 5820 5820 5822 5824 5825 5826 5827 5829 5831 5832 5832 5833 5836 5838 5840 5842 5843 5844 5844 5845 5847 5848 5849 5851 5852 5854 5855 5856 5858 5860 5861 5862 5863 5865 5866 5868 5870 5871 5870 5871 5872 5875 5876 5877 5878 5879 5879 5878 5880 5883 5885 5886 5886 5886 5886 5887 5889 5891 5891 5891 5892 5892 5893 5895 5895
5792 5792 5793 5795 5796 5797 5798 5799 5800 5801 5802 5804 5805 5807 5808 5809 5810 5812 5813 5814 5815 5816 5817 5818 5820 5822 5823 5825 5825 5826 5827 5828 5829 5832 5834 5836 5837 5839 5840 5841 5843 5844 5845 5846 5847 5848 5850 5851 5853 5854 5856 5858 5859 5860 5861 5862 5864 5866 5868 5867 5867 5868 5870 5872 5873 5874 5875 5875 5875 5876 5878 5880 5881 5882 5882 5883 5884 5884 5885 5886 5887 5888 5889 5889 5890 5891
5790 5791 5791 5793 5794 5795 5796 5797 5797 5798 5800 5802 5803 5804 5806 5807 5808 5809 5810 5810 5812 5814 5815 5815 5816 5818 5820 5821 5822 5823 5824 5825 5826 5827 5829 5831 5833 5835 5836 5837 5839 5840 5841 5842 5843 5844 5845 5846 5847 5849 5851 5853 5855 5857 5858 5859 5860 5862 5864 5864 5863 5864 5866 5867 5869 5870 5871 5871 5872 5873 5874 5875 5876 5877 5878 5879 5880 5881 5882 5883 5884 5885 5886 5887 5887 5888
5789 5789 5789 5790 5792 5793 5794 5795 5796 5796 5798 5800 5801 5802 5803 5804 5805 5806 5807 5808 5809 5811 5812 5812 5813 5814 5816 5817 5819 5819 5820 5822 5823 5824 5825 5827 5828 5830 5831 5832 5834 5835 5836 5838 5839 5840 5841 5842 5843 5844 5846 5847 5849 5851 5853 5854 5855 5857 5859 5860 5860 5860 5862 5863 5864 5865 5866 5867 5868 5869 5869 5871 5872 5873 5874 5875 5876 5877 5878 5880 5881 5881 5883 5884 5883 5883
5787 5787 5787 5788 5789 5790 5791 5792 5793 5794 5796 5798 5799 5800 5801 5802 5803 5804 5804 5805 5806 5808 5809 5809 5809 5810 5812 5814 5815 5816 5817 5818 5820 5821 5821 5822 5823 5824 5825 5827 5828 5830 5832 5833 5835 5837 5837 5838 5839 5840 5841 5842 5844 5845 5847 5849 5850 5852 5854 5855 5856 5856 5857 5858 5859 5860 5861 5862 5864 5864 5865 5867 5868 5868 5869 5870 5871 5872 5873 5875 5876 5877 5878 5879 5879 5879
5785 5785 5786 5787 5788 5788 5789 5790 5791 5792 5793 5795 5796 5797 5799 5800 5801 5801 5802 5803 5804 5804 5805 5806 5806 5806 5807 5809 5810 5812 5814 5815 5816 5817 5817 5817 5818 5819 5820 5822 5823 5825 5826 5829 5831 5832 5833 5834 5835 5836 5837 5838 5839 5840 5841 5842 5844 5845 5847 5850 5851 5852 5852 5853 5855 5855 5856 5857 5858 5859 5861 5863 5864 5865 5865 5866 5867 5867 5868 5870 5871 5872 5872 5874 5874 5874
5784 5784 5785 5786 5786 5787 5787 5788 5789 5790 5791 5792 5793 5794 5795 5797 5798 5799 5799 5800 5801 5801 5802 5803 5803 5802 5803 5804 5805 5807 5809 5811 5813 5813 5812 5812 5813 5814 5815 5816 5818 5820 5822 5824 5826 5827 5828 5829 5830 5831 5832 5833 5834 5835 5836 5837 5838 5839 5841 5843 5845 5846 5847 5849 5849 5850 5851 5852 5853 5854 5856 5858 5859 5860 5862 5862 5862 5863 5864 5865 5865 5866 5867 5868 5869 5869
5783 5783 5784 5784 5785 5785 5786 5786 5787 5788 5788 5789 5790 5791 5792 5793 5795 5796 5796 5797 5798 5798 5798 5799 5800 5800 5800 5801 5801 5802 5803 5804 5806 5807 5807 5807 5807 5807 5809 5811 5813 5814 5816 5819 5821 5822 5823 5824 5825 5826 5827 5828 5829 5830 5831 5832 5833 5834 5835 5837 5839 5841 5842 5843 5844 5846 5846 5847 5848 5849 5851 5852 5853 5855 5857 5858 5858 5858 5859 5860 5860 5861 5862 5862 5863 5864